When you browse on this site, cookies collect data to enhance your experience and personalize the content and advertising you see.
Visit our Privacy Policy to learn more. By continuing to use the site, you agree to this use of cookies and data.
  • In Sweden
  • List of Countries
  • For 7 days
  • Water Temperature
  • Satellite Maps
  • Weather Map
  • Weather Widgets
  • user-avatar
    Login

    Hourly Weather Oszkowice

    Today, 25 April, Thursday

    Time Temperature Precipitation Wind Pressure Humidity
    00:00 +14°C° 0 mm 5 mps 751 mmHg 74%
    01:00 +14°C° 0 mm 5 mps 751 mmHg 73%
    02:00 +14°C° 0 mm 5 mps 751 mmHg 75%
    03:00 +13°C° 0 mm 5 mps 750 mmHg 77%
    04:00 +13°C° 0 mm 5 mps 750 mmHg 79%
    05:00 +14°C° 0 mm 5 mps 750 mmHg 76%
    06:00 +15°C° 0 mm 5 mps 750 mmHg 74%
    07:00 +16°C° 0 mm 5 mps 750 mmHg 71%
    08:00 +19°C° 0 mm 5 mps 750 mmHg 65%
    09:00 +21°C° 0 mm 5 mps 750 mmHg 60%
    10:00 +22°C° 0 mm 4 mps 750 mmHg 54%
    11:00 +23°C° 0 mm 4 mps 750 mmHg 52%
    12:00 +25°C° 0 mm 4 mps 750 mmHg 50%
    13:00 +25°C° 0 mm 4 mps 750 mmHg 48%
    14:00 +25°C° 0 mm 3 mps 750 mmHg 49%
    15:00 +25°C° 0 mm 3 mps 750 mmHg 50%
    16:00 +25°C° 0 mm 2 mps 750 mmHg 52%
    17:00 +23°C° 0 mm 2 mps 750 mmHg 55%
    18:00 +21°C° 0 mm 2 mps 750 mmHg 59%
    19:00 +20°C° 0 mm 1 mps 750 mmHg 63%
    20:00 +19°C° 0 mm 2 mps 750 mmHg 65%
    21:00 +18°C° 0 mm 2 mps 750 mmHg 66%
    22:00 +18°C° 0 mm 2 mps 750 mmHg 68%
    23:00 +17°C° 0 mm 2 mps 750 mmHg 71%

    Tomorrow, 26 April, Friday

    Time Temperature Precipitation Wind Pressure Humidity
    00:00 +17°C° 0 mm 2 mps 750 mmHg 74%
    01:00 +16°C° 0 mm 2 mps 750 mmHg 77%
    02:00 +16°C° 0 mm 2 mps 749 mmHg 77%
    03:00 +15°C° 0 mm 2 mps 749 mmHg 78%
    04:00 +15°C° 0 mm 2 mps 749 mmHg 78%
    05:00 +16°C° 0 mm 3 mps 748 mmHg 74%
    06:00 +18°C° 0 mm 3 mps 748 mmHg 70%
    07:00 +19°C° 0 mm 4 mps 748 mmHg 66%
    08:00 +21°C° 0 mm 4 mps 747 mmHg 60%
    09:00 +22°C° 0 mm 5 mps 747 mmHg 55%
    10:00 +25°C° 0 mm 5 mps 747 mmHg 50%
    11:00 +25°C° 0 mm 5 mps 747 mmHg 48%
    12:00 +26°C° 0 mm 4 mps 746 mmHg 46%
    13:00 +27°C° 0 mm 4 mps 746 mmHg 44%
    14:00 +27°C° 0 mm 4 mps 746 mmHg 44%
    15:00 +27°C° 0 mm 4 mps 745 mmHg 43%
    16:00 +27°C° 0 mm 3 mps 745 mmHg 43%
    17:00 +25°C° 0 mm 3 mps 745 mmHg 48%
    18:00 +23°C° 0 mm 2 mps 744 mmHg 54%
    19:00 +21°C° 0 mm 2 mps 744 mmHg 59%
    20:00 +20°C° 0 mm 2 mps 744 mmHg 60%
    21:00 +20°C° 0 mm 3 mps 744 mmHg 61%
    22:00 +19°C° 0 mm 3 mps 745 mmHg 62%
    23:00 +18°C° 0 mm 3 mps 745 mmHg 66%

    Day after tomorrow, 27 April, Saturday

    Time Temperature Precipitation Wind Pressure Humidity
    00:00 +18°C° 0 mm 4 mps 745 mmHg 70%
    01:00 +17°C° 0 mm 4 mps 745 mmHg 73%
    02:00 +16°C° 0 mm 5 mps 745 mmHg 79%
    03:00 +15°C° 0 mm 6 mps 746 mmHg 84%
    04:00 +15°C° 0 mm 7 mps 746 mmHg 90%
    05:00 +14°C° 0.3 mm 7 mps 746 mmHg 89%
    06:00 +12°C° 0.3 mm 7 mps 747 mmHg 88%
    07:00 +11°C° 0.3 mm 6 mps 747 mmHg 87%
    08:00 +13°C° 0.1 mm 6 mps 748 mmHg 85%
    09:00 +13°C° 0.1 mm 6 mps 748 mmHg 83%
    10:00 +13°C° 0.1 mm 6 mps 748 mmHg 81%
    11:00 +14°C° 0 mm 6 mps 748 mmHg 78%
    12:00 +14°C° 0 mm 5 mps 749 mmHg 75%
    13:00 +15°C° 0 mm 5 mps 749 mmHg 73%
    14:00 +15°C° 0 mm 4 mps 749 mmHg 71%
    15:00 +15°C° 0 mm 4 mps 749 mmHg 70%
    16:00 +15°C° 0 mm 4 mps 748 mmHg 68%
    17:00 +14°C° 0 mm 3 mps 748 mmHg 71%
    18:00 +14°C° 0 mm 2 mps 749 mmHg 74%
    19:00 +13°C° 0 mm 1 mps 749 mmHg 77%
    20:00 +13°C° 0 mm 1 mps 749 mmHg 78%
    21:00 +13°C° 0 mm 1 mps 749 mmHg 78%
    22:00 +13°C° 0 mm 1 mps 749 mmHg 78%
    23:00 +13°C° 0.1 mm 1 mps 749 mmHg 79%

    28 April, Sunday

    Time Temperature Precipitation Wind Pressure Humidity
    00:00 +13°C° 0.1 mm 1 mps 749 mmHg 81%
    01:00 +12°C° 0.1 mm 2 mps 750 mmHg 82%
    02:00 +12°C° 0.1 mm 2 mps 750 mmHg 83%
    03:00 +12°C° 0.1 mm 2 mps 750 mmHg 85%
    04:00 +12°C° 0.1 mm 2 mps 750 mmHg 86%
    05:00 +12°C° 0.3 mm 2 mps 750 mmHg 85%
    06:00 +12°C° 0.3 mm 2 mps 750 mmHg 84%
    07:00 +13°C° 0.3 mm 2 mps 751 mmHg 84%
    08:00 +12°C° 0.1 mm 3 mps 751 mmHg 81%
    09:00 +13°C° 0.1 mm 4 mps 751 mmHg 79%
    10:00 +14°C° 0.1 mm 4 mps 751 mmHg 76%
    11:00 +14°C° 0.4 mm 4 mps 751 mmHg 76%
    12:00 +14°C° 0.4 mm 4 mps 751 mmHg 75%
    13:00 +14°C° 0.4 mm 4 mps 751 mmHg 74%
    14:00 +13°C° 0.9 mm 4 mps 751 mmHg 77%
    15:00 +13°C° 0.9 mm 4 mps 751 mmHg 81%
    16:00 +12°C° 0.9 mm 3 mps 751 mmHg 85%
    17:00 +11°C° 0.7 mm 3 mps 751 mmHg 85%
    18:00 +11°C° 0.7 mm 4 mps 751 mmHg 86%
    19:00 +10°C° 0.7 mm 4 mps 751 mmHg 87%
    20:00 +10°C° 0.4 mm 4 mps 751 mmHg 88%
    21:00 +10°C° 0.4 mm 4 mps 751 mmHg 89%
    22:00 +10°C° 0.4 mm 4 mps 751 mmHg 90%
    23:00 +8°C° 0.3 mm 4 mps 751 mmHg 91%

    29 April, Monday

    Time Temperature Precipitation Wind Pressure Humidity
    00:00 +8°C° 0.3 mm 4 mps 751 mmHg 92%
    01:00 +8°C° 0.3 mm 4 mps 751 mmHg 93%
    02:00 +8°C° 1.1 mm 4 mps 751 mmHg 94%
    03:00 +8°C° 1.1 mm 4 mps 750 mmHg 94%
    04:00 +8°C° 1.1 mm 4 mps 750 mmHg 95%
    05:00 +8°C° 2.2 mm 4 mps 750 mmHg 95%
    06:00 +10°C° 2.2 mm 3 mps 750 mmHg 95%
    07:00 +10°C° 2.2 mm 3 mps 750 mmHg 96%
    08:00 +10°C° 0.5 mm 4 mps 750 mmHg 94%
    09:00 +9°C° 0.5 mm 5 mps 751 mmHg 92%
    10:00 +9°C° 0.5 mm 6 mps 751 mmHg 90%
    11:00 +9°C° 0.6 mm 6 mps 751 mmHg 90%
    12:00 +8°C° 0.6 mm 6 mps 751 mmHg 90%
    13:00 +8°C° 0.6 mm 6 mps 751 mmHg 90%
    14:00 +8°C° 0.7 mm 5 mps 751 mmHg 88%
    15:00 +8°C° 0.7 mm 5 mps 751 mmHg 87%
    16:00 +10°C° 0.7 mm 4 mps 751 mmHg 85%
    17:00 +10°C° 0 mm 3 mps 751 mmHg 86%
    18:00 +10°C° 0 mm 3 mps 751 mmHg 86%
    19:00 +10°C° 0 mm 3 mps 751 mmHg 87%
    20:00 +9°C° 0 mm 3 mps 752 mmHg 87%
    21:00 +8°C° 0 mm 3 mps 752 mmHg 87%
    22:00 +8°C° 0 mm 3 mps 752 mmHg 88%
    23:00 +6°C° 0 mm 4 mps 752 mmHg 85%

    30 April, Tuesday

    Time Temperature Precipitation Wind Pressure Humidity
    00:00 +5°C° 0 mm 4 mps 752 mmHg 83%
    01:00 +5°C° 0 mm 4 mps 752 mmHg 81%
    02:00 +4°C° 0 mm 4 mps 752 mmHg 82%
    03:00 +4°C° 0 mm 4 mps 752 mmHg 82%
    04:00 +3°C° 0 mm 4 mps 752 mmHg 83%
    05:00 +4°C° 0 mm 4 mps 753 mmHg 80%
    06:00 +5°C° 0 mm 5 mps 753 mmHg 77%
    07:00 +6°C° 0 mm 5 mps 753 mmHg 74%
    08:00 +8°C° 0 mm 6 mps 753 mmHg 67%
    09:00 +9°C° 0 mm 6 mps 753 mmHg 61%
    10:00 +11°C° 0 mm 6 mps 753 mmHg 54%
    11:00 +11°C° 0 mm 6 mps 753 mmHg 53%
    12:00 +13°C° 0 mm 6 mps 752 mmHg 51%
    13:00 +14°C° 0 mm 6 mps 752 mmHg 50%
    14:00 +14°C° 0 mm 6 mps 752 mmHg 51%
    15:00 +13°C° 0 mm 5 mps 752 mmHg 53%
    16:00 +13°C° 0 mm 5 mps 752 mmHg 54%
    17:00 +12°C° 0 mm 4 mps 752 mmHg 58%
    18:00 +11°C° 0 mm 4 mps 752 mmHg 61%
    19:00 +11°C° 0 mm 3 mps 752 mmHg 65%
    20:00 +9°C° 0 mm 3 mps 752 mmHg 68%
    21:00 +8°C° 0 mm 3 mps 752 mmHg 71%
    22:00 +7°C° 0 mm 3 mps 753 mmHg 75%
    23:00 +7°C° 0 mm 3 mps 753 mmHg 73%
    Show more